AZERSPACE 2 (IS-38)

Last updated on Sun Apr 27 2025 00:02:42 GMT+0000 (Coordinated Universal Time)

1 43632U 18074A 25115.61091568 .00000139 00000+0 00000+0 0 9999 2 43632 0.0213 257.1497 0001393 135.4344 86.3267 1.00270932 24261
UTC large
Height (km)
Speed (km/s)
/
Latitude / Longitude
Inclination (degrees)
Orbital Period (minutes)
Azimuth
Elevation
Range (km)
Doppler Factor

Next 0 passes for location: London (51.5072 / 0.1276)

Sorry there are no passes over London.